User: anonymous   Login
Location: Eschertshofen
(49.3064°N, 11.5756°E)
Time: 23:34:20
(UTC+00:00)
Language:

Cosmos 1125 Rocket - Orbit

View from above orbital plane
View from above orbital plane
View from above satellite
View from above satellite

Ground track
Ground track

The orbit data is extracted from the following two-line orbital elements,

1 11511U 79078B   20332.61664479 +.00000044 +00000-0 +23533-4 0  9991
2 11511 074.0344 160.2109 0014584 096.7980 263.4833 14.36906608159213
Epoch (UTC): 27 November 2020 14:47:58
Eccentricity: 0.0014584
inclination: 74.0344°
perigee height: 758 km
apogee height: 779 km
right ascension of ascending node: 160.2109°
argument of perigee: 96.7980°
revolutions per day: 14.36906608
mean anomaly at epoch: 263.4833°
orbit number at epoch: 15921

The dashed part of the orbit path shows where the satellite is in the earth's shadow,  

DLR